INTELSAT 805 (IS-805)

Last updated on Nov. 18, 2019, 4:21 a.m. UTC

1 25371U 98037A   19321.50973483 -.00000023  00000-0  00000+0 0  9995
2 25371   1.9564  89.3725 0003444 152.4552 167.0870  1.00271047 78464
UTC
Height (km)
Latitude
Longitude
Inclination
Orbital Period
UTC large
Height (km)
Speed (km/s)
/
Latitude / Longitude
Inclination (degrees)
Orbital Period (minutes)
Azimuth
Elevation
Range (km)
Doppler Factor
iOS Compass Heading
iOS Angle

Next 30 passes for location: Hong Kong

Rise time Rise Azimuth (degrees) Set time Set Azimuth (degrees) Duration Max altitude (degrees)

No matching passes for this satellites